Date String (YYYY-MM-DD hh:mm:ss) UTC,Instrument flags,Ambient pressure (hPa),Sample flow (lpm),Bypass flow (lpm),Sample temperature (°C),Ambient temperature (°C),ASC tube jacket temperature (°C),LED temperature (°C),Box temperature (°C),Sample RH (%),Span deviation,Mass concentration (μg/m³),Mass concentration (μg/m³),Mass concentration (μg/m³)
DateTimeUTC,F1_M11,P_M11,Q1_M11,Q2_M11,T1_M11,T2_M11,T3_M11,T4_M11,T5_M11,U1_M11,ZSPAN_M11,X0_M11,X2_M11,X1_M11
2022-11-02 04:00:00,,0820.0,4.99,0.00,29.8,28.3,00.0,38.7,31.6,07.7,0000.0,0004.64,0001.99,0001.69
2022-11-02 04:01:00,,0820.0,5.01,0.00,29.8,28.3,00.0,38.7,31.5,07.7,0000.0,0004.57,0001.95,0001.68
2022-11-02 04:02:00,,0820.0,5.00,0.00,29.8,28.3,00.0,38.7,31.5,07.7,0000.0,0004.35,0001.92,0001.69
2022-11-02 04:03:00,,0820.0,5.00,0.00,29.8,28.3,00.0,38.7,31.5,07.8,0000.0,0002.75,0001.91,0001.70
2022-11-02 04:04:00,,0820.0,5.00,0.00,29.8,28.3,00.0,38.7,31.5,07.8,0000.0,0002.73,0001.92,0001.71
2022-11-02 04:05:00,,0820.0,5.00,0.00,29.8,28.3,00.0,38.7,31.5,07.8,0000.0,0002.61,0001.91,0001.71
2022-11-02 04:06:00,,0820.0,4.99,0.00,29.8,28.3,00.0,38.7,31.5,07.8,0000.0,0002.61,0001.91,0001.71
2022-11-02 04:07:00,,0820.0,5.00,0.00,29.8,28.3,00.0,38.6,31.5,07.8,0000.0,0002.66,0001.93,0001.71
2022-11-02 04:08:00,,0820.0,5.01,0.00,29.8,28.3,00.0,38.6,31.5,07.8,0000.0,0002.48,0001.98,0001.73
2022-11-02 04:09:00,,0820.0,4.99,0.00,29.8,28.3,00.0,38.7,31.5,07.8,0000.0,0002.62,0002.02,0001.75
2022-11-02 04:10:00,,0820.0,4.99,0.00,29.8,28.3,00.0,38.7,31.5,07.8,0000.0,0002.65,0002.01,0001.76
2022-11-02 04:11:00,,0820.0,5.01,0.00,29.8,28.2,00.0,38.6,31.5,07.7,0000.0,0003.24,0002.02,0001.78
2022-11-02 04:12:00,,0819.9,4.99,0.00,29.8,28.2,00.0,38.6,31.5,07.7,0000.0,0003.45,0002.06,0001.81
2022-11-02 04:13:00,,0819.9,5.01,0.00,29.8,28.2,00.0,38.6,31.5,07.7,0000.0,0003.50,0002.07,0001.82
2022-11-02 04:14:00,,0819.9,4.99,0.00,29.8,28.2,00.0,38.6,31.4,07.6,0000.0,0003.65,0002.10,0001.83
2022-11-02 04:15:00,,0819.9,5.01,0.00,29.8,28.2,00.0,38.6,31.4,07.6,0000.0,0003.71,0002.12,0001.84
2022-11-02 04:16:00,,0820.0,4.99,0.00,29.8,28.2,00.0,38.6,31.5,07.6,0000.0,0003.75,0002.14,0001.85
2022-11-02 04:17:00,,0819.9,5.01,0.00,29.7,28.2,00.0,38.6,31.5,07.5,0000.0,0003.71,0002.12,0001.85
2022-11-02 04:18:00,,0820.0,5.00,0.00,29.7,28.2,00.0,38.6,31.5,07.6,0000.0,0003.66,0002.10,0001.84
2022-11-02 04:19:00,,0819.9,5.00,0.00,29.7,28.2,00.0,38.6,31.5,07.6,0000.0,0003.67,0002.09,0001.84
2022-11-02 04:20:00,,0819.9,5.00,0.00,29.7,28.2,00.0,38.6,31.5,07.6,0000.0,0003.86,0002.07,0001.85
2022-11-02 04:21:00,,0819.9,4.98,0.00,29.7,28.2,00.0,38.6,31.4,07.6,0000.0,0003.85,0002.06,0001.85
2022-11-02 04:22:00,,0820.0,5.01,0.00,29.7,28.2,00.0,38.6,31.5,07.5,0000.0,0003.41,0002.09,0001.85
2022-11-02 04:23:00,,0819.9,4.99,0.00,29.7,28.2,00.0,38.6,31.5,07.5,0000.0,0004.46,0002.09,0001.85
2022-11-02 04:24:00,,0819.9,5.02,0.00,29.7,28.2,00.0,38.6,31.5,07.4,0000.0,0004.52,0002.09,0001.84
2022-11-02 04:25:00,,0819.9,5.00,0.00,29.7,28.2,00.0,38.6,31.5,07.4,0000.0,0004.44,0002.08,0001.84
2022-11-02 04:26:00,,0819.9,4.99,0.00,29.7,28.2,00.0,38.6,31.5,07.4,0000.0,0004.41,0002.07,0001.85
2022-11-02 04:27:00,,0819.9,5.00,0.00,29.7,28.2,00.0,38.6,31.4,07.4,0000.0,0004.33,0002.04,0001.84
2022-11-02 04:28:00,,0819.9,5.01,0.00,29.7,28.2,00.0,38.6,31.5,07.5,0000.0,0004.31,0002.03,0001.84
2022-11-02 04:29:00,,0819.9,4.99,0.00,29.7,28.2,00.0,38.6,31.5,07.6,0000.0,0004.33,0002.05,0001.85
2022-11-02 04:30:00,,0819.9,5.01,0.00,29.7,28.2,00.0,38.6,31.4,07.6,0000.0,0004.35,0002.04,0001.85
2022-11-02 04:31:00,,0819.9,5.01,0.00,29.7,28.1,00.0,38.6,31.4,07.5,0000.0,0004.28,0002.06,0001.83
2022-11-02 04:32:00,,0819.9,5.00,0.00,29.7,28.1,00.0,38.6,31.4,07.5,0000.0,0004.18,0002.07,0001.83
2022-11-02 04:33:00,,0819.9,4.99,0.00,29.7,28.1,00.0,38.6,31.4,07.5,0000.0,0004.18,0002.06,0001.83
2022-11-02 04:34:00,,0820.0,4.99,0.00,29.6,28.1,00.0,38.5,31.4,07.5,0000.0,0003.04,0002.04,0001.82
2022-11-02 04:35:00,,0820.0,5.02,0.00,29.7,28.1,00.0,38.5,31.4,07.5,0000.0,0002.76,0002.05,0001.83
2022-11-02 04:36:00,,0819.9,5.00,0.00,29.6,28.2,00.0,38.5,31.3,07.5,0000.0,0002.78,0002.05,0001.83
2022-11-02 04:37:00,,0819.9,4.99,0.00,29.6,28.2,00.0,38.5,31.4,07.5,0000.0,0003.00,0002.05,0001.81
2022-11-02 04:38:00,,0820.0,5.01,0.00,29.6,28.2,00.0,38.5,31.4,07.6,0000.0,0003.59,0002.06,0001.82
2022-11-02 04:39:00,,0819.9,5.00,0.00,29.6,28.2,00.0,38.5,31.4,07.6,0000.0,0003.60,0002.07,0001.82
2022-11-02 04:40:00,,0819.9,5.00,0.00,29.6,28.2,00.0,38.5,31.4,07.6,0000.0,0003.61,0002.07,0001.82
2022-11-02 04:41:00,,0819.9,5.00,0.00,29.6,28.2,00.0,38.5,31.4,07.6,0000.0,0003.49,0002.05,0001.81
2022-11-02 04:42:00,,0819.9,5.02,0.00,29.6,28.2,00.0,38.5,31.3,07.5,0000.0,0003.48,0002.04,0001.80
2022-11-02 04:43:00,,0819.9,4.98,0.00,29.6,28.1,00.0,38.5,31.4,07.5,0000.0,0003.90,0002.04,0001.79
2022-11-02 04:44:00,,0819.9,5.01,0.00,29.6,28.1,00.0,38.5,31.4,07.5,0000.0,0004.26,0002.05,0001.79
2022-11-02 04:45:00,,0819.8,4.99,0.00,29.6,28.1,00.0,38.5,31.4,07.5,0000.0,0004.31,0002.06,0001.79
2022-11-02 04:46:00,,0819.9,5.01,0.00,29.6,28.1,00.0,38.5,31.4,07.5,0000.0,0004.32,0002.04,0001.78
2022-11-02 04:47:00,,0819.9,5.00,0.00,29.6,28.1,00.0,38.5,31.4,07.5,0000.0,0004.50,0002.02,0001.77
2022-11-02 04:48:00,,0819.8,4.99,0.00,29.6,28.1,00.0,38.5,31.4,07.5,0000.0,0004.24,0002.02,0001.78
2022-11-02 04:49:00,,0819.8,5.00,0.00,29.6,28.1,00.0,38.5,31.4,07.5,0000.0,0003.72,0002.02,0001.78
2022-11-02 04:50:00,,0819.8,5.01,0.00,29.6,28.1,00.0,38.5,31.3,07.5,0000.0,0004.24,0002.01,0001.79
2022-11-02 04:51:00,,0819.8,5.00,0.00,29.6,28.1,00.0,38.5,31.3,07.5,0000.0,0005.35,0002.03,0001.80
2022-11-02 04:52:00,,0819.8,5.00,0.00,29.6,28.1,00.0,38.5,31.3,07.5,0000.0,0005.41,0002.06,0001.81
2022-11-02 04:53:00,,0819.7,4.99,0.00,29.6,28.1,00.0,38.5,31.3,07.5,0000.0,0005.32,0002.03,0001.82
2022-11-02 04:54:00,,0819.7,5.01,0.00,29.6,28.1,00.0,38.5,31.4,07.5,0000.0,0004.74,0002.00,0001.82
2022-11-02 04:55:00,,0819.7,4.99,0.00,29.6,28.1,00.0,38.5,31.3,07.5,0000.0,0004.49,0002.02,0001.84
2022-11-02 04:56:00,,0819.7,5.01,0.00,29.6,28.1,00.0,38.5,31.3,07.5,0000.0,0004.53,0002.02,0001.86
2022-11-02 04:57:00,,0819.6,4.99,0.00,29.6,28.0,00.0,38.4,31.3,07.5,0000.0,0004.66,0002.04,0001.87
2022-11-02 04:58:00,,0819.7,5.01,0.00,29.6,28.0,00.0,38.4,31.3,07.5,0000.0,0004.43,0002.08,0001.88
2022-11-02 04:59:00,,0819.6,4.99,0.00,29.6,28.0,00.0,38.4,31.3,07.5,0000.0,0004.50,0002.11,0001.90
